SCP
0 -0 0 0 0 0 -0 -0 0 0 0 0 0 0 0 -0 0 0 0 0 0 0 0 0 0 0 0 0 0 0 0 0
0 -0 -0 0 0 0 -0 0 0 0 0 0 0 0 0 0 0 0 0 0 0 0 1 1 1 0 0 0 0 0 0 0
0 -0 -0 -0 -0 0 0 0 0 0 0 0 0 0 0 0 0 0 0 0 0 1 1 1 1 1 1 1 1 0 0 0
0 -0 -0 -0 -0 0 -0 0 0 0 0 0 0 0 0 0 0 0 0 0 0 1 1 1 1 1 1 1 1 1 0 0
0 0 -0 -0 -0 0 0 -0 -0 0 0 0 0 0 0 0 0 0 0 0 0 0 1 2 2 2 2 1 1 1 1 1
0 0 -0 0 0 0 0 0 0 0 0 0 -0 0 0 0 0 0 0 0 0 0 0 1 1 2 2 2 2 1 1 1
0 0 0 0 -0 0 0 0 0 0 0 -0 0 0 0 0 0 0 0 0 0 0 0 1 1 1 2 2 2 2 1 1
0 0 0 0 0 0 0 -0 0 0 0 0 0 0 0 0 0 0 0 1 1 1 1 0 1 1 2 2 2 2 1 1
0 0 0 0 0 -0 0 0 -0 0 0 0 0 0 0 0 0 0 0 0 1 1 1 1 0 1 3 3 2 2 1 1
0 0 0 0 0 0 0 0 0 0 0 0 0 0 0 0 0 0 0 0 1 1 1 0 1 1 2 3 2 1 1 1
0 0 0 0 0 0 0 0 0 0 0 0 0 0 0 0 0 0 0 0 0 1 0 0 0 1 1 2 1 1 1 0
0 0 0 0 0 0 0 0 0 0 0 0 0 0 0 0 0 0 0 0 0 0 0 1 1 1 1 1 1 0 0 0
0 0 0 0 0 0 0 0 0 0 0 0 0 0 0 0 0 0 0 0 0 0 0 1 1 0 1 1 1 0 0 0
0 0 0 0 0 0 0 0 0 0 0 0 -0 0 0 0 0 0 0 0 0 0 0 0 0 0 1 1 1 0 0 0
0 0 0 0 0 0 0 0 0 0 0 0 0 0 0 0 0 0 0 0 0 0 0 0 0 1 1 0 0 0 0 0
0 0 0 0 0 0 0 0 0 0 -0 0 0 0 0 0 0 0 0 0 0 1 1 1 1 1 0 0 0 0 0 0
0 0 0 0 0 0 0 0 0 0 0 0 0 0 0 0 0 0 0 0 0 1 1 2 1 1 0 0 0 0 0 0
0 0 0 0 0 0 0 0 0 0 0 0 0 0 0 0 0 0 0 0 1 1 1 2 1 1 0 0 0 0 0 0
0 0 0 0 0 0 0 0 0 0 -0 0 0 0 0 0 0 0 0 1 2 1 1 1 1 0 0 0 0 0 0 0
0 0 0 0 0 0 0 0 -0 0 -0 0 0 0 0 0 0 0 0 1 1 1 1 1 0 0 0 0 0 0 0 0
Wind_Speed_500mb
6 6 10 9 12 8 10 13 3 5 15 14 14 32 35 29 37 37 33 31 28 27 29 31 34 33 34 33 29 24 19 14
4 17 17 12 13 5 9 10 14 18 6 3 26 49 31 30 27 39 37 33 31 29 30 33 37 37 38 38 33 28 23 18
7 13 18 11 25 48 15 10 8 22 8 3 28 38 46 38 26 29 34 32 34 35 35 36 41 44 45 43 39 34 29 24
10 15 13 10 34 36 13 15 20 11 10 9 30 30 36 30 29 25 17 23 29 38 42 44 46 49 52 51 47 42 37 31
8 13 20 12 27 17 24 26 9 28 13 23 39 27 24 24 25 32 31 33 32 37 46 49 51 54 55 55 53 48 45 39
7 6 18 4 27 35 15 32 25 17 7 8 38 32 22 16 25 39 49 48 43 41 50 54 55 60 59 57 55 54 51 46
11 11 12 32 15 36 32 28 9 6 14 8 27 37 27 33 47 47 53 53 60 55 58 60 59 63 63 64 61 60 58 53
15 13 16 38 48 45 31 26 29 24 3 26 4 43 38 35 33 41 50 52 59 62 64 64 67 65 67 71 70 70 69 64
36 37 36 46 46 61 33 32 22 17 26 37 31 22 44 40 33 28 34 35 45 60 67 71 72 73 70 72 76 79 75 69
62 55 47 37 59 44 50 47 63 50 63 43 41 44 53 52 41 45 41 42 57 45 48 58 74 77 80 80 78 81 79 73
56 60 60 59 52 48 60 71 77 65 55 53 47 57 64 67 63 61 53 61 55 39 35 42 62 75 82 87 78 74 74 72
51 56 60 47 54 63 71 83 72 69 61 58 62 62 75 70 62 61 55 54 48 37 41 46 45 55 66 78 79 66 61 58
39 33 22 33 43 49 71 71 66 72 72 71 75 73 55 54 59 54 61 44 36 38 44 50 45 45 52 67 77 66 55 49
39 36 31 14 59 36 38 51 62 64 76 83 89 94 96 92 77 62 36 35 35 39 42 47 41 41 43 58 73 62 49 47
33 23 15 29 78 34 62 57 47 61 76 82 89 89 84 86 77 61 51 48 45 38 40 44 41 36 45 58 62 50 43 46
36 12 31 43 64 43 58 58 59 75 81 77 85 93 79 89 78 56 57 55 44 36 47 43 40 45 52 58 53 49 45 44
5 25 31 36 36 40 38 37 41 70 65 77 83 87 76 66 59 53 56 50 43 46 49 44 47 61 59 56 50 47 45 45
17 17 22 31 45 47 42 38 58 62 63 72 73 86 75 60 54 46 45 43 42 49 46 47 51 62 70 64 49 43 45 42
24 27 46 25 24 23 26 30 52 51 68 73 64 63 62 58 54 51 46 41 49 49 46 44 47 49 48 45 38 44 38 34
32 21 31 17 36 45 36 45 36 41 59 57 64 72 67 54 58 53 43 44 43 42 40 42 41 40 40 38 45 42 33 29
Wind_Direction_500mb
142 198 210 212 195 140 268 269 15 226 271 129 158 158 141 152 157 173 182 179 176 180 189 196 202 202 201 202 200 199 199 201
150 237 263 254 288 360 264 293 264 268 311 102 158 153 158 153 167 183 190 186 190 194 195 202 208 211 210 210 210 210 213 219
241 245 253 283 292 299 245 240 221 207 177 81 179 173 170 164 173 193 199 198 205 207 209 210 214 216 216 216 216 219 221 229
241 247 270 283 293 297 213 281 285 248 123 157 155 164 164 178 180 188 210 220 221 222 218 221 221 222 220 218 217 221 225 231
273 283 299 282 308 319 309 237 245 141 122 162 176 189 179 181 198 209 212 230 224 235 225 227 230 228 226 223 221 223 227 233
252 238 275 196 338 318 340 300 95 138 151 200 192 188 188 210 234 218 217 225 235 240 241 238 233 231 231 229 229 229 231 234
240 210 257 330 356 304 336 347 7 208 153 163 211 189 200 215 213 217 226 237 236 238 242 246 242 236 232 233 234 233 235 234
215 251 292 310 306 293 325 321 326 332 184 343 198 210 202 207 220 228 232 238 242 239 243 248 247 243 236 235 235 235 235 236
258 260 273 284 286 287 301 298 280 300 320 330 273 245 220 234 224 259 266 250 245 239 242 243 247 246 242 240 237 237 238 238
254 257 260 260 277 282 277 275 285 296 286 293 289 268 287 258 271 277 262 282 284 264 244 246 245 247 247 246 240 238 240 238
243 258 258 263 265 265 277 280 283 283 268 267 281 290 291 285 282 283 262 282 274 260 268 259 245 245 247 246 245 240 242 241
254 252 254 255 261 263 269 272 278 283 275 284 293 292 294 286 284 286 265 259 251 262 283 281 268 256 259 255 246 240 240 238
253 252 257 270 265 250 254 268 273 274 281 291 295 294 288 287 286 297 275 253 244 271 283 282 272 280 271 259 244 241 238 230
249 248 255 258 261 253 261 257 262 272 283 283 285 284 276 281 277 283 257 237 253 273 272 273 273 277 266 254 240 241 238 230
246 228 233 206 258 256 258 256 270 280 280 279 281 277 278 279 276 270 250 248 260 266 271 271 270 266 250 240 231 231 226 221
247 220 231 242 261 263 265 271 272 272 272 271 267 269 286 284 274 256 253 255 260 270 273 261 255 242 229 221 219 219 217 206
232 217 228 245 257 261 254 248 261 267 270 267 265 268 279 277 242 251 251 255 265 271 258 249 229 218 205 195 195 196 205 221
290 289 236 246 255 263 264 259 252 258 262 262 273 282 276 237 239 243 255 252 263 255 240 235 230 216 215 213 213 230 232 235
261 294 288 291 285 284 266 252 260 266 270 272 274 281 276 251 242 243 248 255 247 227 227 228 212 204 202 211 220 226 223 227
254 250 258 216 277 268 266 264 264 245 254 264 274 274 274 257 244 240 236 230 220 219 215 204 202 199 202 208 195 196 203 217
Wind_Speed_850mb
6 6 10 9 12 8 10 13 3 5 15 14 14 32 35 29 37 37 33 31 28 27 29 31 34 33 34 33 29 24 19 14
4 17 17 12 13 5 9 10 14 18 6 3 26 49 31 30 27 39 37 33 31 29 30 33 37 37 38 38 33 28 23 18
7 13 18 11 25 48 15 10 8 22 8 3 28 38 46 38 26 29 34 32 34 35 35 36 41 44 45 43 39 34 29 24
10 15 13 10 34 36 13 15 20 11 10 9 30 30 36 30 29 25 17 23 29 38 42 44 46 49 52 51 47 42 37 31
8 13 20 12 27 17 24 26 9 28 13 23 39 27 24 24 25 32 31 33 32 37 46 49 51 54 55 55 53 48 45 39
7 6 18 4 27 35 15 32 25 17 7 8 38 32 22 16 25 39 49 48 43 41 50 54 55 60 59 57 55 54 51 46
11 11 12 32 15 36 32 28 9 6 14 8 27 37 27 33 47 47 53 53 60 55 58 60 59 63 63 64 61 60 58 53
15 13 16 38 48 45 31 26 29 24 3 26 4 43 38 35 33 41 50 52 59 62 64 64 67 65 67 71 70 70 69 64
36 37 36 46 46 61 33 32 22 17 26 37 31 22 44 40 33 28 34 35 45 60 67 71 72 73 70 72 76 79 75 69
62 55 47 37 59 44 50 47 63 50 63 43 41 44 53 52 41 45 41 42 57 45 48 58 74 77 80 80 78 81 79 73
56 60 60 59 52 48 60 71 77 65 55 53 47 57 64 67 63 61 53 61 55 39 35 42 62 75 82 87 78 74 74 72
51 56 60 47 54 63 71 83 72 69 61 58 62 62 75 70 62 61 55 54 48 37 41 46 45 55 66 78 79 66 61 58
39 33 22 33 43 49 71 71 66 72 72 71 75 73 55 54 59 54 61 44 36 38 44 50 45 45 52 67 77 66 55 49
39 36 31 14 59 36 38 51 62 64 76 83 89 94 96 92 77 62 36 35 35 39 42 47 41 41 43 58 73 62 49 47
33 23 15 29 78 34 62 57 47 61 76 82 89 89 84 86 77 61 51 48 45 38 40 44 41 36 45 58 62 50 43 46
36 12 31 43 64 43 58 58 59 75 81 77 85 93 79 89 78 56 57 55 44 36 47 43 40 45 52 58 53 49 45 44
5 25 31 36 36 40 38 37 41 70 65 77 83 87 76 66 59 53 56 50 43 46 49 44 47 61 59 56 50 47 45 45
17 17 22 31 45 47 42 38 58 62 63 72 73 86 75 60 54 46 45 43 42 49 46 47 51 62 70 64 49 43 45 42
24 27 46 25 24 23 26 30 52 51 68 73 64 63 62 58 54 51 46 41 49 49 46 44 47 49 48 45 38 44 38 34
32 21 31 17 36 45 36 45 36 41 59 57 64 72 67 54 58 53 43 44 43 42 40 42 41 40 40 38 45 42 33 29
Wind_Direction_850mb
142 198 210 212 195 140 268 269 15 226 271 129 158 158 141 152 157 173 182 179 176 180 189 196 202 202 201 202 200 199 199 201
150 237 263 254 288 360 264 293 264 268 311 102 158 153 158 153 167 183 190 186 190 194 195 202 208 211 210 210 210 210 213 219
241 245 253 283 292 299 245 240 221 207 177 81 179 173 170 164 173 193 199 198 205 207 209 210 214 216 216 216 216 219 221 229
241 247 270 283 293 297 213 281 285 248 123 157 155 164 164 178 180 188 210 220 221 222 218 221 221 222 220 218 217 221 225 231
273 283 299 282 308 319 309 237 245 141 122 162 176 189 179 181 198 209 212 230 224 235 225 227 230 228 226 223 221 223 227 233
252 238 275 196 338 318 340 300 95 138 151 200 192 188 188 210 234 218 217 225 235 240 241 238 233 231 231 229 229 229 231 234
240 210 257 330 356 304 336 347 7 208 153 163 211 189 200 215 213 217 226 237 236 238 242 246 242 236 232 233 234 233 235 234
215 251 292 310 306 293 325 321 326 332 184 343 198 210 202 207 220 228 232 238 242 239 243 248 247 243 236 235 235 235 235 236
258 260 273 284 286 287 301 298 280 300 320 330 273 245 220 234 224 259 266 250 245 239 242 243 247 246 242 240 237 237 238 238
254 257 260 260 277 282 277 275 285 296 286 293 289 268 287 258 271 277 262 282 284 264 244 246 245 247 247 246 240 238 240 238
243 258 258 263 265 265 277 280 283 283 268 267 281 290 291 285 282 283 262 282 274 260 268 259 245 245 247 246 245 240 242 241
254 252 254 255 261 263 269 272 278 283 275 284 293 292 294 286 284 286 265 259 251 262 283 281 268 256 259 255 246 240 240 238
253 252 257 270 265 250 254 268 273 274 281 291 295 294 288 287 286 297 275 253 244 271 283 282 272 280 271 259 244 241 238 230
249 248 255 258 261 253 261 257 262 272 283 283 285 284 276 281 277 283 257 237 253 273 272 273 273 277 266 254 240 241 238 230
246 228 233 206 258 256 258 256 270 280 280 279 281 277 278 279 276 270 250 248 260 266 271 271 270 266 250 240 231 231 226 221
247 220 231 242 261 263 265 271 272 272 272 271 267 269 286 284 274 256 253 255 260 270 273 261 255 242 229 221 219 219 217 206
232 217 228 245 257 261 254 248 261 267 270 267 265 268 279 277 242 251 251 255 265 271 258 249 229 218 205 195 195 196 205 221
290 289 236 246 255 263 264 259 252 258 262 262 273 282 276 237 239 243 255 252 263 255 240 235 230 216 215 213 213 230 232 235
261 294 288 291 285 284 266 252 260 266 270 272 274 281 276 251 242 243 248 255 247 227 227 228 212 204 202 211 220 226 223 227
254 250 258 216 277 268 266 264 264 245 254 264 274 274 274 257 244 240 236 230 220 219 215 204 202 199 202 208 195 196 203 217